Year,Month,Day,Hour,Minute,Value (Times are PST for insolation in W/m^2)
2006,02,28,00,00,0.00
2006,02,28,00,01,0.00
2006,02,28,00,02,0.00
2006,02,28,00,03,0.00
2006,02,28,00,04,0.00
2006,02,28,00,05,0.00
2006,02,28,00,06,0.00
2006,02,28,00,07,0.00
2006,02,28,00,08,0.00
2006,02,28,00,09,0.00
2006,02,28,00,10,0.00
2006,02,28,00,11,0.00
2006,02,28,00,12,0.00
2006,02,28,00,13,0.00
2006,02,28,00,14,0.00
2006,02,28,00,15,0.00
2006,02,28,00,16,0.00
2006,02,28,00,17,0.00
2006,02,28,00,18,0.00
2006,02,28,00,19,0.00
2006,02,28,00,20,0.00
2006,02,28,00,21,0.00
2006,02,28,00,22,0.00
2006,02,28,00,23,0.00
2006,02,28,00,24,0.00
2006,02,28,00,25,0.00
2006,02,28,00,26,0.00
2006,02,28,00,27,0.00
2006,02,28,00,28,0.00
2006,02,28,00,29,0.00
2006,02,28,00,30,0.00
2006,02,28,00,31,0.00
2006,02,28,00,32,0.00
2006,02,28,00,33,0.00
2006,02,28,00,34,0.00
2006,02,28,00,35,0.00
2006,02,28,00,36,0.00
2006,02,28,00,37,0.00
2006,02,28,00,38,0.00
2006,02,28,00,39,0.00
2006,02,28,00,40,0.00
2006,02,28,00,41,0.00
2006,02,28,00,42,0.00
2006,02,28,00,43,0.00
2006,02,28,00,44,0.00
2006,02,28,00,45,0.00
2006,02,28,00,46,0.00
2006,02,28,00,47,0.00
2006,02,28,00,48,0.00
2006,02,28,00,49,0.00
2006,02,28,00,50,0.00
2006,02,28,00,51,0.00
2006,02,28,00,52,0.00
2006,02,28,00,53,0.00
2006,02,28,00,54,0.00
2006,02,28,00,55,0.00
2006,02,28,00,56,0.00
2006,02,28,00,57,0.00
2006,02,28,00,58,0.00
2006,02,28,00,59,0.00
2006,02,28,01,00,0.00
2006,02,28,01,01,0.00
2006,02,28,01,02,0.00
2006,02,28,01,03,0.00
2006,02,28,01,04,0.00
2006,02,28,01,05,0.00
2006,02,28,01,06,0.00
2006,02,28,01,07,0.00
2006,02,28,01,08,0.00
2006,02,28,01,09,0.00
2006,02,28,01,10,0.00
2006,02,28,01,11,0.00
2006,02,28,01,12,0.00
2006,02,28,01,13,0.00
2006,02,28,01,14,0.00
2006,02,28,01,15,0.00
2006,02,28,01,16,0.00
2006,02,28,01,17,0.00
2006,02,28,01,18,0.00
2006,02,28,01,19,0.00
2006,02,28,01,20,0.00
2006,02,28,01,21,0.00
2006,02,28,01,22,0.00
2006,02,28,01,23,0.00
2006,02,28,01,24,0.00
2006,02,28,01,25,0.00
2006,02,28,01,26,0.00
2006,02,28,01,27,0.00
2006,02,28,01,28,0.00
2006,02,28,01,29,0.00
2006,02,28,01,30,0.00
2006,02,28,01,31,0.00
2006,02,28,01,32,0.00
2006,02,28,01,33,0.00
2006,02,28,01,34,0.00
2006,02,28,01,35,0.00
2006,02,28,01,36,0.00
2006,02,28,01,37,0.00
2006,02,28,01,38,0.00
2006,02,28,01,39,0.00
2006,02,28,01,40,0.00
2006,02,28,01,41,0.00
2006,02,28,01,42,0.00
2006,02,28,01,43,0.00
2006,02,28,01,44,0.00
2006,02,28,01,45,0.00
2006,02,28,01,46,0.00
2006,02,28,01,47,0.00
2006,02,28,01,48,0.00
2006,02,28,01,49,0.00
2006,02,28,01,50,0.00
2006,02,28,01,51,0.00
2006,02,28,01,52,0.00
2006,02,28,01,53,0.00
2006,02,28,01,54,0.00
2006,02,28,01,55,0.00
2006,02,28,01,56,0.00
2006,02,28,01,57,0.00
2006,02,28,01,58,0.00
2006,02,28,01,59,0.00
2006,02,28,02,00,0.00
2006,02,28,02,01,0.00
2006,02,28,02,02,0.00
2006,02,28,02,03,0.00
2006,02,28,02,04,0.00
2006,02,28,02,05,0.00
2006,02,28,02,06,0.00
2006,02,28,02,07,0.00
2006,02,28,02,08,0.00
2006,02,28,02,09,0.00
2006,02,28,02,10,0.00
2006,02,28,02,11,0.00
2006,02,28,02,12,0.00
2006,02,28,02,13,0.00
2006,02,28,02,14,0.00
2006,02,28,02,15,0.00
2006,02,28,02,16,0.00
2006,02,28,02,17,0.00
2006,02,28,02,18,0.00
2006,02,28,02,19,0.00
2006,02,28,02,20,0.00
2006,02,28,02,21,0.00
2006,02,28,02,22,0.00
2006,02,28,02,23,0.00
2006,02,28,02,24,0.00
2006,02,28,02,25,0.00
2006,02,28,02,26,0.00
2006,02,28,02,27,0.00
2006,02,28,02,28,0.00
2006,02,28,02,29,0.00
2006,02,28,02,30,0.00
2006,02,28,02,31,0.00
2006,02,28,02,32,0.00
2006,02,28,02,33,0.00
2006,02,28,02,34,0.00
2006,02,28,02,35,0.00
2006,02,28,02,36,0.00
2006,02,28,02,37,0.00
2006,02,28,02,38,0.00
2006,02,28,02,39,0.00
2006,02,28,02,40,0.00
2006,02,28,02,41,0.00
2006,02,28,02,42,0.00
2006,02,28,02,43,0.00
2006,02,28,02,44,0.00
2006,02,28,02,45,0.00
2006,02,28,02,46,0.00
2006,02,28,02,47,0.00
2006,02,28,02,48,0.00
2006,02,28,02,49,0.00
2006,02,28,02,50,0.00
2006,02,28,02,51,0.00
2006,02,28,02,52,0.00
2006,02,28,02,53,0.00
2006,02,28,02,54,0.00
2006,02,28,02,55,0.00
2006,02,28,02,56,0.00
2006,02,28,02,57,0.00
2006,02,28,02,58,0.00
2006,02,28,02,59,0.00
2006,02,28,03,00,0.00
2006,02,28,03,01,0.00
2006,02,28,03,02,0.00
2006,02,28,03,03,0.00
2006,02,28,03,04,0.00
2006,02,28,03,05,0.00
2006,02,28,03,06,0.00
2006,02,28,03,07,0.00
2006,02,28,03,08,0.00
2006,02,28,03,09,0.00
2006,02,28,03,10,0.00
2006,02,28,03,11,0.00
2006,02,28,03,12,0.00
2006,02,28,03,13,0.00
2006,02,28,03,14,0.00
2006,02,28,03,15,0.00
2006,02,28,03,16,0.00
2006,02,28,03,17,0.00
2006,02,28,03,18,0.00
2006,02,28,03,19,0.00
2006,02,28,03,20,0.00
2006,02,28,03,21,0.00
2006,02,28,03,22,0.00
2006,02,28,03,23,0.00
2006,02,28,03,24,0.00
2006,02,28,03,25,0.00
2006,02,28,03,26,0.00
2006,02,28,03,27,0.00
2006,02,28,03,28,0.00
2006,02,28,03,29,0.00
2006,02,28,03,30,0.00
2006,02,28,03,31,0.00
2006,02,28,03,32,0.00
2006,02,28,03,33,0.00
2006,02,28,03,34,0.00
2006,02,28,03,35,0.00
2006,02,28,03,36,0.00
2006,02,28,03,37,0.00
2006,02,28,03,38,0.00
2006,02,28,03,39,0.00
2006,02,28,03,40,0.00
2006,02,28,03,41,0.00
2006,02,28,03,42,0.00
2006,02,28,03,43,0.00
2006,02,28,03,44,0.00
2006,02,28,03,45,0.00
2006,02,28,03,46,0.00
2006,02,28,03,47,0.00
2006,02,28,03,48,0.00
2006,02,28,03,49,0.00
2006,02,28,03,50,0.00
2006,02,28,03,51,0.00
2006,02,28,03,52,0.00
2006,02,28,03,53,0.00
2006,02,28,03,54,0.00
2006,02,28,03,55,0.00
2006,02,28,03,56,0.00
2006,02,28,03,57,0.00
2006,02,28,03,58,0.00
2006,02,28,03,59,0.00
2006,02,28,04,00,0.00
2006,02,28,04,01,0.00
2006,02,28,04,02,0.00
2006,02,28,04,03,0.00
2006,02,28,04,04,0.00
2006,02,28,04,05,0.00
2006,02,28,04,06,0.00
2006,02,28,04,07,0.00
2006,02,28,04,08,0.00
2006,02,28,04,09,0.00
2006,02,28,04,10,0.00
2006,02,28,04,11,0.00
2006,02,28,04,12,0.00
2006,02,28,04,13,0.00
2006,02,28,04,14,0.00
2006,02,28,04,15,0.00
2006,02,28,04,16,0.00
2006,02,28,04,17,0.00
2006,02,28,04,18,0.00
2006,02,28,04,19,0.00
2006,02,28,04,20,0.00
2006,02,28,04,21,0.00
2006,02,28,04,22,0.00
2006,02,28,04,23,0.00
2006,02,28,04,24,0.00
2006,02,28,04,25,0.00
2006,02,28,04,26,0.00
2006,02,28,04,27,0.00
2006,02,28,04,28,0.00
2006,02,28,04,29,0.00
2006,02,28,04,30,0.00
2006,02,28,04,31,0.00
2006,02,28,04,32,0.00
2006,02,28,04,33,0.00
2006,02,28,04,34,0.00
2006,02,28,04,35,0.00
2006,02,28,04,36,0.00
2006,02,28,04,37,0.00
2006,02,28,04,38,0.00
2006,02,28,04,39,0.00
2006,02,28,04,40,0.00
2006,02,28,04,41,0.00
2006,02,28,04,42,0.00
2006,02,28,04,43,0.00
2006,02,28,04,44,0.00
2006,02,28,04,45,0.00
2006,02,28,04,46,0.00
2006,02,28,04,47,0.00
2006,02,28,04,48,0.00
2006,02,28,04,49,0.00
2006,02,28,04,50,0.00
2006,02,28,04,51,0.00
2006,02,28,04,52,0.00
2006,02,28,04,53,0.00
2006,02,28,04,54,0.00
2006,02,28,04,55,0.00
2006,02,28,04,56,0.00
2006,02,28,04,57,0.00
2006,02,28,04,58,0.00
2006,02,28,04,59,0.00
2006,02,28,05,00,0.00
2006,02,28,05,01,0.00
2006,02,28,05,02,0.00
2006,02,28,05,03,0.00
2006,02,28,05,04,0.00
2006,02,28,05,05,0.00
2006,02,28,05,23,0.00
2006,02,28,05,24,0.00
2006,02,28,05,25,0.00
2006,02,28,05,26,0.00
2006,02,28,05,27,0.00
2006,02,28,05,28,0.00
2006,02,28,05,29,0.00
2006,02,28,05,30,0.00
2006,02,28,05,31,0.00
2006,02,28,05,32,0.00
2006,02,28,05,33,0.00
2006,02,28,05,34,0.00
2006,02,28,05,35,0.00
2006,02,28,05,36,0.00
2006,02,28,05,37,0.00
2006,02,28,05,38,0.00
2006,02,28,05,39,0.00
2006,02,28,05,40,0.00
2006,02,28,05,41,0.00
2006,02,28,05,42,0.00
2006,02,28,05,43,0.00
2006,02,28,05,44,0.00
2006,02,28,05,45,0.00
2006,02,28,05,46,0.00
2006,02,28,05,47,0.00
2006,02,28,05,48,0.00
2006,02,28,05,49,0.00
2006,02,28,05,50,0.00
2006,02,28,05,51,0.00
2006,02,28,05,52,0.00
2006,02,28,05,53,0.00
2006,02,28,05,54,0.00
2006,02,28,05,55,0.00
2006,02,28,05,56,0.00
2006,02,28,05,57,0.00
2006,02,28,05,58,0.00
2006,02,28,05,59,0.00
2006,02,28,06,00,0.00
2006,02,28,06,01,0.00
2006,02,28,06,02,0.00
2006,02,28,06,03,0.00
2006,02,28,06,04,0.00
2006,02,28,06,05,0.00
2006,02,28,06,06,0.00
2006,02,28,06,07,0.00
2006,02,28,06,08,0.00
2006,02,28,06,09,0.00
2006,02,28,06,10,0.00
2006,02,28,06,11,0.00
2006,02,28,06,12,0.00
2006,02,28,06,13,0.00
2006,02,28,06,14,0.00
2006,02,28,06,15,0.00
2006,02,28,06,16,0.00
2006,02,28,06,17,0.00
2006,02,28,06,18,0.00
2006,02,28,06,19,0.00
2006,02,28,06,20,0.00
2006,02,28,06,21,0.00
2006,02,28,06,22,0.00
2006,02,28,06,23,0.00
2006,02,28,06,24,0.00
2006,02,28,06,25,0.00
2006,02,28,06,26,0.00
2006,02,28,06,27,0.00
2006,02,28,06,28,0.00
2006,02,28,06,29,0.00
2006,02,28,06,30,0.00
2006,02,28,06,31,0.00
2006,02,28,06,32,0.00
2006,02,28,06,33,0.00
2006,02,28,06,34,0.00
2006,02,28,06,35,0.00
2006,02,28,06,36,0.00
2006,02,28,06,37,0.00
2006,02,28,06,38,0.00
2006,02,28,06,39,0.00
2006,02,28,06,40,0.00
2006,02,28,06,41,0.00
2006,02,28,06,42,0.00
2006,02,28,06,43,0.00
2006,02,28,06,44,0.00
2006,02,28,06,45,0.00
2006,02,28,06,46,0.00
2006,02,28,06,47,0.00
2006,02,28,06,48,0.00
2006,02,28,06,49,0.00
2006,02,28,06,50,0.00
2006,02,28,06,51,0.00
2006,02,28,06,52,0.00
2006,02,28,06,53,0.00
2006,02,28,06,54,0.00
2006,02,28,06,55,0.00
2006,02,28,06,56,0.00
2006,02,28,06,57,0.00
2006,02,28,06,58,0.00
2006,02,28,06,59,0.00
2006,02,28,07,00,0.00
2006,02,28,07,01,0.00
2006,02,28,07,02,0.00
2006,02,28,07,03,0.00
2006,02,28,07,04,0.00
2006,02,28,07,05,0.00
2006,02,28,07,06,0.00
2006,02,28,07,07,0.00
2006,02,28,07,08,0.00
2006,02,28,07,09,0.00
2006,02,28,07,10,0.00
2006,02,28,07,11,0.00
2006,02,28,07,12,0.00
2006,02,28,07,13,0.00
2006,02,28,07,14,0.00
2006,02,28,07,15,0.00
2006,02,28,07,16,1.80
2006,02,28,07,17,5.00
2006,02,28,07,18,5.00
2006,02,28,07,19,5.00
2006,02,28,07,20,5.00
2006,02,28,07,21,5.00
2006,02,28,07,22,5.00
2006,02,28,07,23,5.00
2006,02,28,07,24,5.00
2006,02,28,07,25,5.00
2006,02,28,07,26,5.00
2006,02,28,07,27,5.80
2006,02,28,07,28,9.00
2006,02,28,07,29,9.00
2006,02,28,07,30,9.00
2006,02,28,07,31,9.00
2006,02,28,07,32,9.20
2006,02,28,07,33,11.00
2006,02,28,07,34,11.00
2006,02,28,07,35,11.00
2006,02,28,07,36,11.70
2006,02,28,07,37,12.00
2006,02,28,07,38,12.00
2006,02,28,07,39,12.00
2006,02,28,07,40,12.00
2006,02,28,07,41,12.00
2006,02,28,07,42,12.00
2006,02,28,07,43,12.00
2006,02,28,07,44,14.20
2006,02,28,07,45,16.00
2006,02,28,07,46,16.80
2006,02,28,07,47,18.00
2006,02,28,07,48,18.80
2006,02,28,07,49,19.00
2006,02,28,07,50,19.00
2006,02,28,07,51,19.00
2006,02,28,07,52,19.00
2006,02,28,07,53,19.00
2006,02,28,07,54,25.80
2006,02,28,07,55,28.00
2006,02,28,07,56,28.00
2006,02,28,07,57,30.00
2006,02,28,07,58,36.00
2006,02,28,07,59,37.00
2006,02,28,08,00,39.20
2006,02,28,08,01,41.90
2006,02,28,08,02,44.40
2006,02,28,08,03,46.00
2006,02,28,08,04,46.50
2006,02,28,08,05,47.00
2006,02,28,08,06,47.00
2006,02,28,08,07,47.00
2006,02,28,08,08,48.30
2006,02,28,08,09,53.00
2006,02,28,08,10,53.00
2006,02,28,08,11,57.50
2006,02,28,08,12,60.00
2006,02,28,08,13,60.00
2006,02,28,08,14,60.00
2006,02,28,08,15,60.00
2006,02,28,08,16,61.60
2006,02,28,08,17,64.40
2006,02,28,08,18,66.70
2006,02,28,08,19,67.00
2006,02,28,08,20,67.00
2006,02,28,08,21,67.00
2006,02,28,08,22,67.00
2006,02,28,08,23,67.00
2006,02,28,08,24,67.00
2006,02,28,08,25,69.00
2006,02,28,08,26,69.00
2006,02,28,08,27,73.20
2006,02,28,08,28,81.90
2006,02,28,08,29,88.40
2006,02,28,08,30,92.60
2006,02,28,08,31,93.00
2006,02,28,08,32,92.30
2006,02,28,08,33,91.00
2006,02,28,08,34,89.20
2006,02,28,08,35,88.00
2006,02,28,08,36,89.80
2006,02,28,08,37,90.80
2006,02,28,08,38,96.50
2006,02,28,08,39,100.00
2006,02,28,08,40,104.40
2006,02,28,08,41,107.00
2006,02,28,08,42,106.90
2006,02,28,08,43,105.00
2006,02,28,08,44,104.00
2006,02,28,08,45,103.50
2006,02,28,08,46,108.90
2006,02,28,08,47,111.00
2006,02,28,08,48,111.00
2006,02,28,08,49,111.60
2006,02,28,08,50,114.00
2006,02,28,08,51,114.00
2006,02,28,08,52,114.00
2006,02,28,08,53,114.00
2006,02,28,08,54,113.70
2006,02,28,08,55,111.00
2006,02,28,08,56,111.00
2006,02,28,08,57,111.00
2006,02,28,08,58,111.00
2006,02,28,08,59,111.00
2006,02,28,09,00,126.40
2006,02,28,09,01,119.20
2006,02,28,09,02,113.60
2006,02,28,09,03,113.00
2006,02,28,09,04,113.70
2006,02,28,09,05,114.00
2006,02,28,09,06,114.90
2006,02,28,09,07,120.00
2006,02,28,09,08,120.40
2006,02,28,09,09,121.00
2006,02,28,09,10,121.00
2006,02,28,09,11,120.70
2006,02,28,09,12,113.50
2006,02,28,09,13,111.00
2006,02,28,09,14,111.00
2006,02,28,09,15,111.00
2006,02,28,09,16,109.40
2006,02,28,09,17,109.10
2006,02,28,09,18,111.00
2006,02,28,09,19,110.30
2006,02,28,09,20,109.00
2006,02,28,09,21,109.00
2006,02,28,09,22,107.40
2006,02,28,09,23,106.90
2006,02,28,09,24,105.00
2006,02,28,09,25,105.00
2006,02,28,09,26,105.00
2006,02,28,09,27,103.10
2006,02,28,09,28,102.00
2006,02,28,09,29,103.80
2006,02,28,09,30,104.00
2006,02,28,09,31,104.00
2006,02,28,09,32,113.50
2006,02,28,09,33,123.00
2006,02,28,09,34,134.20
2006,02,28,09,35,137.00
2006,02,28,09,36,137.00
2006,02,28,09,37,137.00
2006,02,28,09,38,137.00
2006,02,28,09,39,159.80
2006,02,28,09,40,172.00
2006,02,28,09,41,172.00
2006,02,28,09,42,177.70
2006,02,28,09,43,196.20
2006,02,28,09,44,197.90
2006,02,28,09,45,196.50
2006,02,28,09,46,189.10
2006,02,28,09,47,188.00
2006,02,28,09,48,188.00
2006,02,28,09,49,176.20
2006,02,28,09,50,160.00
2006,02,28,09,51,160.00
2006,02,28,09,52,169.40
2006,02,28,09,53,171.00
2006,02,28,09,54,171.00
2006,02,28,09,55,189.90
2006,02,28,09,56,213.00
2006,02,28,09,57,185.20
2006,02,28,09,58,176.00
2006,02,28,09,59,211.00
2006,02,28,10,00,211.00
2006,02,28,10,01,215.10
2006,02,28,10,02,220.00
2006,02,28,10,03,222.40
2006,02,28,10,04,232.90
2006,02,28,10,05,234.00
2006,02,28,10,06,257.20
2006,02,28,10,07,328.00
2006,02,28,10,08,400.10
2006,02,28,10,09,424.00
2006,02,28,10,10,429.20
2006,02,28,10,11,476.00
2006,02,28,10,12,476.00
2006,02,28,10,13,476.00
2006,02,28,10,14,410.30
2006,02,28,10,15,454.40
2006,02,28,10,16,473.00
2006,02,28,10,17,455.80
2006,02,28,10,18,404.00
2006,02,28,10,19,341.30
2006,02,28,10,20,290.00
2006,02,28,10,21,230.50
2006,02,28,10,22,216.00
2006,02,28,10,23,231.80
2006,02,28,10,24,279.00
2006,02,28,10,25,279.00
2006,02,28,10,26,279.00
2006,02,28,10,27,279.00
2006,02,28,10,28,279.00
2006,02,28,10,29,279.00
2006,02,28,10,30,279.00
2006,02,28,10,31,279.00
2006,02,28,10,32,279.00
2006,02,28,10,33,554.60
2006,02,28,10,34,648.20
2006,02,28,10,35,670.50
2006,02,28,10,36,691.00
2006,02,28,10,37,691.00
2006,02,28,10,38,691.00
2006,02,28,10,39,671.50
2006,02,28,10,40,646.70
2006,02,28,10,41,592.00
2006,02,28,10,42,592.00
2006,02,28,10,43,592.00
2006,02,28,10,44,654.20
2006,02,28,10,45,674.50
2006,02,28,10,46,674.00
2006,02,28,10,47,689.00
2006,02,28,10,48,689.00
2006,02,28,10,49,689.00
2006,02,28,10,50,611.40
2006,02,28,10,51,592.00
2006,02,28,10,52,592.00
2006,02,28,10,53,592.00
2006,02,28,10,54,592.00
2006,02,28,10,55,592.00
2006,02,28,10,56,336.20
2006,02,28,10,57,280.10
2006,02,28,10,58,315.00
2006,02,28,10,59,492.20
2006,02,28,11,00,760.80
2006,02,28,11,01,763.00
2006,02,28,11,02,763.00
2006,02,28,11,03,676.60
2006,02,28,11,04,658.50
2006,02,28,11,05,653.00
2006,02,28,11,06,646.50
2006,02,28,11,07,629.00
2006,02,28,11,08,632.40
2006,02,28,11,09,634.10
2006,02,28,11,10,643.00
2006,02,28,11,11,643.00
2006,02,28,11,12,613.50
2006,02,28,11,13,592.00
2006,02,28,11,14,201.60
2006,02,28,11,15,162.00
2006,02,28,11,16,162.00
2006,02,28,11,17,162.00
2006,02,28,11,18,162.00
2006,02,28,11,19,167.20
2006,02,28,11,20,173.50
2006,02,28,11,21,176.00
2006,02,28,11,22,176.00
2006,02,28,11,23,175.00
2006,02,28,11,24,174.00
2006,02,28,11,25,170.20
2006,02,28,11,26,167.10
2006,02,28,11,27,169.50
2006,02,28,11,28,179.00
2006,02,28,11,29,190.50
2006,02,28,11,30,202.00
2006,02,28,11,31,202.00
2006,02,28,11,32,202.00
2006,02,28,11,33,210.20
2006,02,28,11,34,254.30
2006,02,28,11,35,276.40
2006,02,28,11,36,264.90
2006,02,28,11,37,237.60
2006,02,28,11,38,231.50
2006,02,28,11,39,223.00
2006,02,28,11,40,207.00
2006,02,28,11,41,199.60
2006,02,28,11,42,194.30
2006,02,28,11,43,203.80
2006,02,28,11,44,206.80
2006,02,28,11,45,214.00
2006,02,28,11,46,214.00
2006,02,28,11,47,214.00
2006,02,28,11,48,214.00
2006,02,28,11,49,436.30
2006,02,28,11,50,518.30
2006,02,28,11,51,747.00
2006,02,28,11,52,747.00
2006,02,28,11,53,750.80
2006,02,28,11,54,757.00
2006,02,28,11,55,764.30
2006,02,28,11,56,763.30
2006,02,28,11,57,754.00
2006,02,28,11,58,750.70
2006,02,28,11,59,744.00
2006,02,28,12,00,742.00
2006,02,28,12,01,742.00
2006,02,28,12,02,742.00
2006,02,28,12,03,742.00
2006,02,28,12,04,742.00
2006,02,28,12,05,765.40
2006,02,28,12,06,779.00
2006,02,28,12,07,778.80
2006,02,28,12,08,775.00
2006,02,28,12,09,766.20
2006,02,28,12,10,744.00
2006,02,28,12,11,740.20
2006,02,28,12,12,733.80
2006,02,28,12,13,732.30
2006,02,28,12,14,721.00
2006,02,28,12,15,721.00
2006,02,28,12,16,721.00
2006,02,28,12,17,721.00
2006,02,28,12,18,721.00
2006,02,28,12,19,719.00
2006,02,28,12,20,702.50
2006,02,28,12,21,707.40
2006,02,28,12,22,714.00
2006,02,28,12,23,726.00
2006,02,28,12,24,738.30
2006,02,28,12,25,740.00
2006,02,28,12,26,752.60
2006,02,28,12,27,790.80
2006,02,28,12,28,801.60
2006,02,28,12,29,816.60
2006,02,28,12,30,805.60
2006,02,28,12,31,809.00
2006,02,28,12,32,809.00
2006,02,28,12,33,809.00
2006,02,28,12,34,809.00
2006,02,28,12,35,809.00
2006,02,28,12,36,809.00
2006,02,28,12,37,809.00
2006,02,28,12,38,809.00
2006,02,28,12,39,809.00
2006,02,28,12,40,809.00
2006,02,28,12,41,809.00
2006,02,28,12,42,693.40
2006,02,28,12,43,673.00
2006,02,28,12,44,666.70
2006,02,28,12,45,652.00
2006,02,28,12,46,638.70
2006,02,28,12,47,633.90
2006,02,28,12,48,633.20
2006,02,28,12,49,633.40
2006,02,28,12,50,635.00
2006,02,28,12,51,635.00
2006,02,28,12,52,643.40
2006,02,28,12,53,651.40
2006,02,28,12,54,652.00
2006,02,28,12,55,652.00
2006,02,28,12,56,649.20
2006,02,28,12,57,641.30
2006,02,28,12,58,633.50
2006,02,28,12,59,631.00
2006,02,28,13,00,617.70
2006,02,28,13,01,615.10
2006,02,28,13,02,608.70
2006,02,28,13,03,610.00
2006,02,28,13,04,610.00
2006,02,28,13,05,606.00
2006,02,28,13,06,606.60
2006,02,28,13,07,612.00
2006,02,28,13,08,613.20
2006,02,28,13,09,609.70
2006,02,28,13,10,605.00
2006,02,28,13,11,605.00
2006,02,28,13,12,586.40
2006,02,28,13,13,594.00
2006,02,28,13,14,600.70
2006,02,28,13,15,612.80
2006,02,28,13,16,613.60
2006,02,28,13,17,614.70
2006,02,28,13,18,614.20
2006,02,28,13,19,610.00
2006,02,28,13,20,596.50
2006,02,28,13,21,600.20
2006,02,28,13,22,612.00
2006,02,28,13,23,613.10
2006,02,28,13,24,617.30
2006,02,28,13,25,619.70
2006,02,28,13,26,621.00
2006,02,28,13,27,616.20
2006,02,28,13,28,613.00
2006,02,28,13,29,573.70
2006,02,28,13,30,554.00
2006,02,28,13,31,550.70
2006,02,28,13,32,545.00
2006,02,28,13,33,496.40
2006,02,28,13,34,468.00
2006,02,28,13,35,469.00
2006,02,28,13,36,479.20
2006,02,28,13,37,450.00
2006,02,28,13,38,450.00
2006,02,28,13,39,450.00
2006,02,28,13,40,450.00
2006,02,28,13,41,450.00
2006,02,28,13,42,450.00
2006,02,28,13,43,450.00
2006,02,28,13,44,450.00
2006,02,28,13,45,422.70
2006,02,28,13,46,408.00
2006,02,28,13,47,478.00
2006,02,28,13,48,486.40
2006,02,28,13,49,517.60
2006,02,28,13,50,500.60
2006,02,28,13,51,480.00
2006,02,28,13,52,398.30
2006,02,28,13,53,360.50
2006,02,28,13,54,341.00
2006,02,28,13,55,362.50
2006,02,28,13,56,405.80
2006,02,28,13,57,417.00
2006,02,28,13,58,401.70
2006,02,28,13,59,401.40
2006,02,28,14,00,415.00
2006,02,28,14,01,415.00
2006,02,28,14,02,415.00
2006,02,28,14,03,415.00
2006,02,28,14,04,370.50
2006,02,28,14,05,292.00
2006,02,28,14,06,290.20
2006,02,28,14,07,324.90
2006,02,28,14,08,367.00
2006,02,28,14,09,395.40
2006,02,28,14,10,403.00
2006,02,28,14,11,403.00
2006,02,28,14,12,403.00
2006,02,28,14,13,432.00
2006,02,28,14,14,473.40
2006,02,28,14,15,477.00
2006,02,28,14,16,476.00
2006,02,28,14,17,476.00
2006,02,28,14,18,476.00
2006,02,28,14,19,476.00
2006,02,28,14,20,466.20
2006,02,28,14,21,461.00
2006,02,28,14,22,461.00
2006,02,28,14,23,461.00
2006,02,28,14,24,462.10
2006,02,28,14,25,456.30
2006,02,28,14,26,432.90
2006,02,28,14,27,425.00
2006,02,28,14,28,423.50
2006,02,28,14,29,410.00
2006,02,28,14,30,410.00
2006,02,28,14,31,393.50
2006,02,28,14,32,380.00
2006,02,28,14,33,380.00
2006,02,28,14,34,381.50
2006,02,28,14,35,394.00
2006,02,28,14,36,403.20
2006,02,28,14,37,394.80
2006,02,28,14,38,380.00
2006,02,28,14,39,397.90
2006,02,28,14,40,381.00
2006,02,28,14,41,374.70
2006,02,28,14,42,360.00
2006,02,28,14,43,282.00
2006,02,28,14,44,214.20
2006,02,28,14,45,207.20
2006,02,28,14,46,207.00
2006,02,28,14,47,210.30
2006,02,28,14,48,218.00
2006,02,28,14,49,218.00
2006,02,28,14,50,218.00
2006,02,28,14,51,218.90
2006,02,28,14,52,237.80
2006,02,28,14,53,241.00
2006,02,28,14,54,231.50
2006,02,28,14,55,221.00
2006,02,28,14,56,221.00
2006,02,28,14,57,224.40
2006,02,28,14,58,288.00
2006,02,28,14,59,387.20
2006,02,28,15,00,536.00
2006,02,28,15,01,536.00
2006,02,28,15,02,536.00
2006,02,28,15,03,461.00
2006,02,28,15,04,403.00
2006,02,28,15,05,231.80
2006,02,28,15,06,218.00
2006,02,28,15,07,218.00
2006,02,28,15,08,222.20
2006,02,28,15,09,217.90
2006,02,28,15,10,218.40
2006,02,28,15,11,225.00
2006,02,28,15,12,225.00
2006,02,28,15,13,292.10
2006,02,28,15,14,235.20
2006,02,28,15,15,221.90
2006,02,28,15,16,227.00
2006,02,28,15,17,212.70
2006,02,28,15,18,191.20
2006,02,28,15,19,190.00
2006,02,28,15,20,212.10
2006,02,28,15,21,219.30
2006,02,28,15,22,237.00
2006,02,28,15,23,237.00
2006,02,28,15,24,237.00
2006,02,28,15,25,237.00
2006,02,28,15,26,237.00
2006,02,28,15,27,272.80
2006,02,28,15,28,464.00
2006,02,28,15,29,464.00
2006,02,28,15,30,464.00
2006,02,28,15,31,464.00
2006,02,28,15,32,275.20
2006,02,28,15,33,248.80
2006,02,28,15,34,237.60
2006,02,28,15,35,240.40
2006,02,28,15,36,232.00
2006,02,28,15,37,232.00
2006,02,28,15,38,232.00
2006,02,28,15,39,233.00
2006,02,28,15,40,236.00
2006,02,28,15,41,243.00
2006,02,28,15,42,250.00
2006,02,28,15,43,209.20
2006,02,28,15,44,189.40
2006,02,28,15,45,179.00
2006,02,28,15,46,179.00
2006,02,28,15,47,165.30
2006,02,28,15,48,153.00
2006,02,28,15,49,149.00
2006,02,28,15,50,144.50
2006,02,28,15,51,146.00
2006,02,28,15,52,146.00
2006,02,28,15,53,146.00
2006,02,28,15,54,146.00
2006,02,28,15,55,146.00
2006,02,28,15,56,168.00
2006,02,28,15,57,366.00
2006,02,28,15,58,375.90
2006,02,28,15,59,388.00
2006,02,28,16,00,388.00
2006,02,28,16,01,388.00
2006,02,28,16,02,388.00
2006,02,28,16,03,379.60
2006,02,28,16,04,358.70
2006,02,28,16,05,357.00
2006,02,28,16,06,357.00
2006,02,28,16,07,357.00
2006,02,28,16,08,353.80
2006,02,28,16,09,340.10
2006,02,28,16,10,337.00
2006,02,28,16,11,336.00
2006,02,28,16,12,336.00
2006,02,28,16,13,332.40
2006,02,28,16,14,332.00
2006,02,28,16,15,333.30
2006,02,28,16,16,337.50
2006,02,28,16,17,339.00
2006,02,28,16,18,342.20
2006,02,28,16,19,341.00
2006,02,28,16,20,339.00
2006,02,28,16,21,339.00
2006,02,28,16,22,339.00
2006,02,28,16,23,339.00
2006,02,28,16,24,162.20
2006,02,28,16,25,105.20
2006,02,28,16,26,100.00
2006,02,28,16,27,100.00
2006,02,28,16,28,101.10
2006,02,28,16,29,157.30
2006,02,28,16,30,181.00
2006,02,28,16,31,99.50
2006,02,28,16,32,92.20
2006,02,28,16,33,79.20
2006,02,28,16,34,72.00
2006,02,28,16,35,72.00
2006,02,28,16,36,66.10
2006,02,28,16,37,67.00
2006,02,28,16,38,67.00
2006,02,28,16,39,64.10
2006,02,28,16,40,60.00
2006,02,28,16,41,58.60
2006,02,28,16,42,56.30
2006,02,28,16,43,62.00
2006,02,28,16,44,126.50
2006,02,28,16,45,172.00
2006,02,28,16,46,172.00
2006,02,28,16,47,172.00
2006,02,28,16,48,114.40
2006,02,28,16,49,91.00
2006,02,28,16,50,85.00
2006,02,28,16,51,63.90
2006,02,28,16,52,47.70
2006,02,28,16,53,50.30
2006,02,28,16,54,52.20
2006,02,28,16,55,36.20
2006,02,28,16,56,33.60
2006,02,28,16,57,34.00
2006,02,28,16,58,33.00
2006,02,28,16,59,33.00
2006,02,28,17,00,32.90
2006,02,28,17,01,32.00
2006,02,28,17,02,32.00
2006,02,28,17,03,32.00
2006,02,28,17,04,32.70
2006,02,28,17,05,33.00
2006,02,28,17,06,34.80
2006,02,28,17,07,48.80
2006,02,28,17,08,42.70
2006,02,28,17,09,44.00
2006,02,28,17,10,44.00
2006,02,28,17,11,44.00
2006,02,28,17,12,40.80
2006,02,28,17,13,23.00
2006,02,28,17,14,23.00
2006,02,28,17,15,23.00
2006,02,28,17,16,27.90
2006,02,28,17,17,30.00
2006,02,28,17,18,30.30
2006,02,28,17,19,32.00
2006,02,28,17,20,32.00
2006,02,28,17,21,24.20
2006,02,28,17,22,19.00
2006,02,28,17,23,19.00
2006,02,28,17,24,23.00
2006,02,28,17,25,23.60
2006,02,28,17,26,25.00
2006,02,28,17,27,25.00
2006,02,28,17,28,25.00
2006,02,28,17,29,25.00
2006,02,28,17,30,25.00
2006,02,28,17,31,25.00
2006,02,28,17,32,25.00
2006,02,28,17,33,25.00
2006,02,28,17,34,25.00